Weather History for Managua, Nicaragua

Change the Weather History Date:

Thursday, December 6, 2012

  Actual Average Record
Temperature  
Mean Temperature 81 °F -  
Max Temperature 91 °F 87 °F 91 °F (1997)
Min Temperature 71 °F 69 °F 62 °F (2000)
Cooling Degree Days 16    
Growing Degree Days 31 (Base 50)    
Moisture  
Dew Point 65 °F    
Average Humidity 63    
Maximum Humidity 88    
Minimum Humidity 36    
Precipitation  
Precipitation 0.00 in - - ()
Sea Level Pressure  
Sea Level Pressure 29.82 in    
Wind  
Wind Speed 4 mph ()    
Max Wind Speed 14 mph    
Max Gust Speed -    
Visibility 6.2 miles    
Events      
Averages and records for this station are not official NWS values.
T = Trace of Precipitation, MM = Missing Value Source: Averaged Metar Reports

Daily Weather History Graph

Daily Weather History Graph

Search for Another Location

Airport:

Trip Planner

Search our weather history database for the weather conditions in past years. The results will help you decide how hot, cold, wet, or windy it might be!

Date:

Astronomy

Dec. 06, 2012 Rise Set
Actual Time 5:52 AM CST 5:19 PM CST
Civil Twilight 5:29 AM CST 5:42 PM CST
Nautical Twilight 5:03 AM CST 6:08 PM CST
Astronomical Twilight 4:37 AM CST 6:34 PM CST
Moon No Moon Rise 11:42 AM CST (12/6)
Length of Visible Light 12h 12m
Length of Day
11h 26m
Waning Gibbous, 49% of the Moon is Illuminated
Dec 6
Waning Gibbous
Dec 13
New
Dec 19
First Quarter
Dec 28
Full
Jan 4
Last Quarter

Hourly Weather History & Observations

Time (CST) Temp. Heat Index Dew Point Humidity Pressure Visibility Wind Dir Wind Speed Gust Speed Precip Events Conditions
12:00 AM 75.2 °F - 68.0 °F 78% 29.86 in 6.2 mi Calm Calm - N/A   Partly Cloudy
1:00 AM 73.4 °F - 68.0 °F 83% 29.86 in 6.2 mi Calm Calm - N/A   Partly Cloudy
2:00 AM 73.4 °F - 68.0 °F 83% 29.83 in 6.2 mi Calm Calm - N/A   Partly Cloudy
3:00 AM 73.4 °F - 68.0 °F 83% 29.83 in 6.2 mi Calm Calm - N/A   Partly Cloudy
4:00 AM 71.6 °F - 68.0 °F 88% 29.83 in 6.2 mi Calm Calm - N/A   Partly Cloudy
5:00 AM 71.6 °F - 68.0 °F 88% 29.83 in 6.2 mi Calm Calm - N/A   Partly Cloudy
6:00 AM 71.6 °F - 66.2 °F 83% 29.83 in 6.2 mi SE 4.6 mph - N/A   Partly Cloudy
7:00 AM 75.2 °F - 68.0 °F 78% 29.86 in 6.2 mi ESE 4.6 mph - N/A   Partly Cloudy
8:00 AM 78.8 °F - 68.0 °F 69% 29.89 in 6.2 mi ESE 6.9 mph - N/A   Partly Cloudy
9:00 AM 82.4 °F 85.4 °F 68.0 °F 62% 29.89 in 6.2 mi ENE 4.6 mph - N/A   Partly Cloudy
10:00 AM 82.4 °F 85.4 °F 68.0 °F 62% 29.89 in 6.2 mi ENE 6.9 mph - N/A   Partly Cloudy
11:00 AM 86.0 °F 87.3 °F 64.4 °F 48% 29.86 in 6.2 mi East 9.2 mph - N/A   Partly Cloudy
12:00 PM 89.6 °F 90.1 °F 62.6 °F 40% 29.83 in 6.2 mi East 11.5 mph - N/A   Partly Cloudy
1:00 PM 91.4 °F 91.4 °F 60.8 °F 36% 29.77 in 6.2 mi ENE 11.5 mph - N/A   Partly Cloudy
2:00 PM 91.4 °F 91.4 °F 60.8 °F 36% 29.77 in 6.2 mi East 6.9 mph - N/A   Partly Cloudy
3:00 PM 91.4 °F 93.2 °F 64.4 °F 41% 29.74 in 6.2 mi East 11.5 mph - N/A   Partly Cloudy
4:00 PM 89.6 °F 90.1 °F 62.6 °F 40% 29.74 in 6.2 mi East 9.2 mph - N/A   Partly Cloudy
5:00 PM 86.0 °F 86.6 °F 62.6 °F 45% 29.74 in 6.2 mi ESE 13.8 mph - N/A   Partly Cloudy
6:00 PM 82.4 °F 83.4 °F 62.6 °F 51% 29.77 in 6.2 mi East 6.9 mph - N/A   Partly Cloudy
7:00 PM 80.6 °F 82.3 °F 64.4 °F 58% 29.80 in 6.2 mi East 6.9 mph - N/A   Partly Cloudy
8:00 PM 78.8 °F - 66.2 °F 65% 29.83 in 6.2 mi East 4.6 mph - N/A   Partly Cloudy
9:00 PM 77.0 °F - 64.4 °F 65% 29.83 in 6.2 mi ESE 4.6 mph - N/A   Partly Cloudy
10:00 PM 75.2 °F - 64.4 °F 69% 29.83 in 6.2 mi ESE 6.9 mph - N/A   Partly Cloudy
11:00 PM 75.2 °F - 64.4 °F 69% 29.83 in 6.2 mi Calm Calm - N/A   Partly Cloudy